User: anonymous   Login
Location: Theydon Bois
(51.6750°N, 0.1050°E)
Time: 04:57:28
(UTC+01:00)
Language:

Resurs 01 Rocket - Orbit

View from above orbital plane
View from above orbital plane
View from above satellite
View from above satellite

Ground track
Ground track

The orbit data is extracted from the following two-line orbital elements,

1 23343U 94074B   18232.60864564 -.00000002 +00000-0 +71994-5 0  9992
2 23343 098.0991 277.5239 0007972 128.3509 023.1132 14.76740237279990
Epoch (UTC): 20 August 2018 14:36:26
Eccentricity: 0.0007972
inclination: 98.0991°
perigee height: 634 km
apogee height: 645 km
right ascension of ascending node: 277.5239°
argument of perigee: 128.3509°
revolutions per day: 14.76740237
mean anomaly at epoch: 23.1132°
orbit number at epoch: 27999

The dashed part of the orbit path shows where the satellite is in the earth's shadow,  

DLR